Location: Park Creek Village Mobile Home Park
(38.2885°N, 122.4714°W)
Time: 21:37:41
(UTC+00:00)

Meteor 2-4 Rocket - Pass Details

Date: 14 December 2019
Orbit: 798 x 909 km, 81.2° (Epoch: 22 January)

Event Time Altitude Azimuth Distance (km) Brightness Sun altitude
Rises 13:57:19 0° 348° (NNW) 3,366 6.5 -15.5°
Reaches altitude 10° 13:59:45 10° 347° (NNW) 2,416 5.8 -15.0°
Maximum altitude 14:05:10 71° 264° (W) 850 3.5 -14.0°
Drops below altitude 10° 14:10:27 10° 181° (S) 2,364 6.3 -13.0°
Sets 14:12:49 0° 179° (S) 3,288 7.1 -12.6°
